Tracking 27122 objects as of 26-Mar-2023
HD Live streaming from Space Station
objects crossing your sky now

STARLINK-3091

Track STARLINK-3091 now!
10-day predictions
STARLINK-3091 is classified as:


NORAD ID: 49172
Int'l Code: 2021-082AU
Perigee: 577.2 km
Apogee: 581.3 km
Inclination: 70.0 °
Period: 96.1 minutes
Semi major axis: 6950 km
RCS: Unknown
Launch date: September 14, 2021
Source: United States (US)
Launch site: AIR FORCE WESTERN TEST RANGE (AFWTR)
Your satellite tracking list
Your tracking list is empty




NASA's NSSDC Master Catalog

Two Line Element Set (TLE):
1 49172U 21082AU  23084.82602684 -.00000387  00000-0 -24622-4 0  9999
2 49172  69.9994 117.1769 0002929 270.6088  89.4735 14.98316391 84717
Source of the keplerian elements: AFSPC